Location: Holmbach
(49.5093°N, 8.8411°E)
Time: 04:20:15
(UTC+00:00)

Cosmos 1833 Rocket - Pass Details

Date: 17 June 2025
Orbit: 832 x 837 km, 71.0° (Epoch: 12 July)

Event Time Altitude Azimuth Distance (km) Brightness Sun altitude
Rises 22:39:31 0° 333° (NNW) 3,396 7.4 -16.4°
Reaches altitude 10° 22:42:08 10° 341° (NNW) 2,457 6.4 -16.4°
Maximum altitude 22:47:26 41° 51° (NE) 1,197 3.7 -16.6°
Enters shadow 22:52:28 11° 121° (ESE) 2,354 4.7 -16.7°
